Retour au catalogue

FENGYUN 1C DEB

LostPO
NORAD 36991·DEBRIS·🇨🇳 China

Lancé May 10, 1999 depuis Taiyuan Satellite Launch Center

Loading…

Prochains Passages (prochaines 24 heures)

TLE

PériméSource: Space-Track

Époque: Mar 25, 2024, 14:28 UTC

1 36991U 99025EBX 24085.60280929  .00006900  00000-0  60364-2 0  9994
2 36991  98.1245 217.6807 0271326 284.0357  73.0772 13.70489574818922

Suivez FENGYUN 1C DEB en temps réel avec AllMySat

Download on the App Store